This demonstration page uses our WeatherBlox Daily Observations layout. Learn more.

Left ArrowRight Arrow

34.02893, -84.19858

Hourly Observations for November 27, 2016

Temp ( °F °C ) Dew Point ( °F °C ) Humidity (%) Winds ( mph kmh ) Pressure ( in mb ) Visibility ( mi km ) Precip ( " mm )
12:53 am 00:53 Clear 34 1.1 28 -2.2 79 79 Calm 30.24 1024 10 16 0.00 0.00
1:53 am 01:53 Clear 32 0 27 -2.8 82 82 Calm 30.23 1024 9 14 0.00 0.00
2:53 am 02:53 Clear 29 -1.7 25 -3.9 85 85 Calm 30.26 1025 10 16 0.00 0.00
3:53 am 03:53 Clear 31 -0.6 27 -2.8 85 85 Calm 30.27 1025 9 14 0.00 0.00
4:53 am 04:53 Clear 30 -1.1 26 -3.3 85 85 Calm 30.27 1025 8 13 0.00 0.00
5:53 am 05:53 Clear 33 0.6 27 -2.8 78 78 Calm 30.27 1025 10 16 0.00 0.00
6:53 am 06:53 Clear 33 0.6 25 -3.9 72 72 NNE 3 6 30.29 1026 10 16 0.00 0.00
7:53 am 07:53 Sunny 38 3.3 26 -3.3 62 62 ENE 6 9 30.30 1026 10 16 0.00 0.00
8:53 am 08:53 Sunny 42 5.6 27 -2.8 55 55 VRB 5 7 30.31 1026 10 16 0.00 0.00
9:53 am 09:53 Sunny 48 8.9 28 -2.2 46 46 VRB 5 7 30.30 1026 10 16 0.00 0.00
10:53 am 10:53 Sunny 52 11.1 27 -2.8 38 38 SE 6 9 30.30 1026 10 16 0.00 0.00
11:53 am 11:53 Sunny 54 12.2 28 -2.2 37 37 Calm 30.28 1025 10 16 0.00 0.00
12:53 pm 12:53 Sunny 57 13.9 29 -1.7 34 34 VRB 3 6 30.24 1024 10 16 0.00 0.00
1:53 pm 13:53 Sunny 57 13.9 29 -1.7 34 34 SE 6 9 30.20 1023 10 16 0.00 0.00
2:53 pm 14:53 Sunny 58 14.4 28 -2.2 32 32 SE 8 13 30.18 1022 10 16 0.00 0.00
3:53 pm 15:53 Sunny 58 14.4 28 -2.2 32 32 VRB 6 9 30.17 1022 10 16 0.00 0.00
4:53 pm 16:53 Sunny 56 13.3 28 -2.2 34 34 ESE 5 7 30.18 1022 10 16 0.00 0.00
5:53 pm 17:53 Clear 52 11.1 28 -2.2 40 40 Calm 30.17 1022 10 16 0.00 0.00
6:53 pm 18:53 Clear 51 10.6 29 -1.7 43 43 E 5 7 30.16 1021 10 16 0.00 0.00
7:53 pm 19:53 Clear 51 10.6 29 -1.7 43 43 VRB 3 6 30.15 1021 10 16 0.00 0.00
8:53 pm 20:53 Clear 50 10 29 -1.7 44 44 E 5 7 30.16 1022 10 16 0.00 0.00
9:53 pm 21:53 Clear 49 9.4 30 -1.1 48 48 E 3 6 30.16 1021 10 16 0.00 0.00
10:53 pm 22:53 Clear 48 8.9 30 -1.1 50 50 VRB 3 6 30.14 1021 10 16 0.00 0.00
11:53 pm 23:53 Clear 47 8.3 30 -1.1 52 52 E 5 7 30.14 1021 10 16 0.00 0.00

Powered by AerisWeather